Regional Weather Roundup
Issued by NWS New Orleans/Baton Rouge, LA

Home | Current Version | Previous Version | Text Only | Print | Product List | Glossary On
Versions: 1 2 3 4 5 6 7 8 9 10 11 12 13 14 15 16 17 18 19 20 21 22 23 24 25 26 27 28 29 30 31 32 33 34 35 36 37 38 39 40 41 42 43 44 45 46 47 48 49 50
000
ASUS44 KLIX 291510
RWRLIX
NEW ORLEANS REGIONAL WEATHER ROUNDUP
NATIONAL WEATHER SERVICE NEW ORLEANS LA
900 AM CST MON DEC 29 2014

NOTE: "FAIR" INDICATES FEW OR NO CLOUDS BELOW 12,000 FEET WITH NO
      SIGNIFICANT WEATHER AND/OR OBSTRUCTIONS TO VISIBILITY.
      SKY/WX - SKY CONDITION AND SIGNIFICANT WEATHER.
      TMP - AIR TEMPERATURE.     DP    - DEWPOINT TEMPERATURE.
      RH  - RELATIVE HUMIDITY.   PRES  - PRESSURE.
      HI  - HEAT INDEX.          WCI   - WIND CHILL INDEX.

*  THESE STATIONS ARE NOT NWS OR FAA STATIONS AND ARE NOT UNDER
   NWS QUALITY CONTROL.

LAZ038-040-048-061>063-065>067-069-291600-
SOUTHEAST LOUISIANA

CITY           SKY/WX    TMP DP  RH WIND       PRES   REMARKS
N.O. AUDUBON     N/A     56  56 100 MISG        N/A
N.O. INTL ARPT CLOUDY    57  53  86 NE7       30.14R
N.O. LAKEFRONT CLOUDY    57  53  86 N3        30.15R
N.O. DOWNTOWN* CLOUDY    55  52  88 CALM      30.15R
SLIDELL        CLOUDY    56  53  90 NE3       30.14R
BATON ROUGE    PTSUNNY   50  48  93 N3        30.17R FOG
BOOTHVILLE     FOG       59  59 100 N7        30.15R VSB 3/4
BELLE CHASSE   FOG       56  54  93 CALM      30.14R VSB 1
BOGALUSA*        N/A     54  51  88 CALM      30.17R
GALLIANO*      CLOUDY    54  54  99 MISG      30.15R
NEW ROADS*     DRIZZLE   48  47  97 NW5       30.18R
GONZALES*      CLOUDY    53  53 100 NW5       30.16R FOG
HAMMOND*       NOT AVBL
HOUMA*         FOG       55  55 100 CALM      30.15R VSB 1
PORT FOURCHON* CLOUDY    61  59  94 N7        30.18R FOG

$$

MSZ070-080>082-291600-
SOUTHERN MISSISSIPPI

CITY           SKY/WX    TMP DP  RH WIND       PRES   REMARKS
MCCOMB         CLOUDY    50  47  89 N7        30.16R
GULFPORT       CLOUDY    57  55  93 N5        30.14S
BILOXI         CLOUDY    57  57 100 N7        30.14S
PASCAGOULA     CLOUDY    57  55  93 N6        30.15R
STENNIS ARPT*  FOG       55  52  88 N5        30.14F VSB 1

$$

COASTAL OBSERVATIONS
LAKE AND NEARSHORE STATIONS

STATION/POSITION TIME  TEMP    WIND        PRES    WAVE
                       AIR SEA DIR/SP/G            HT/PER
                 (UTC) (F)     (DEG/KT/KT) (MB)    (FT/S)
PASCAGOULA       1500   58     350/  6/  8 1020.3
WAVELAND YACHT   1500   55     360/  7/  8 1019.8
GRAND ISLE       1500   60 63   10/  6/  7 1021.3
SOUTHWEST PASS   1500   61                 1020.6
NEW CANAL        1500   55 58   30/  2/  3 1021.1
SHELL BEACH      1500   56 61  360/  5/  6 1020.6

OFFSHORE STATIONS

STATION/POSITION TIME  TEMP    WIND        PRES    WAVE
                       AIR SEA DIR/SP/G            HT/PER
                 (UTC) (F)     (DEG/KT/KT) (MB)    (FT/S)
64 S DAUPHIN ISL 1500   66 73  110/  6/  6 1019.1    3/ 5

$$



USA.gov is the U.S. government's official web portal to all federal, state and local government web resources and services.